[[{"header":{"parameterUnit":"m.s-1","parameterCategory":1,"la1":30.2991,"la2":30.254,"lo1":-89.0895,"lo2":-89.0444,"dy":0.0017,"dx":0.0017,"nx":28,"ny":28,"refTime":"2024-04-28T03:00:00:Z","depth":0,"parameterNumber":2,"parameterNumberName":"U-component_of_WINDS"},"data":[0,0,0,0,0,0,0,0,0,0,0,0,0,0,0,0,0,0,0,0,0,0,0,0,0,0,0,0,0,0,0,0,0,0,0,0,0,0,0,0,0,0,0,0,0,0,0,0,0,0,0,0,0,0,0,0,0,0,-7.5269,-7.527,0,-7.5338,-7.5339,-7.534,-7.526,-7.5257,-7.5254,-7.5251,-7.5318,-7.5322,-7.5327,0,0,0,0,0,0,0,0,0,0,0,0,0,-7.5065,-7.5069,-7.5269,-7.527,-7.5271,-7.5338,-7.5339,-7.534,-7.526,-7.5256,-7.5253,-7.5249,-7.5316,-7.5322,-7.5327,0,0,0,0,0,0,0,0,0,0,0,0,0,-7.5146,-7.507,-7.5269,-7.5239,-7.5237,-7.5338,-7.5339,-7.534,-7.5261,-7.5256,-7.5252,-7.5248,-7.5315,-7.5321,-7.5328,-7.546,0,0,-7.5349,-7.5352,0,0,0,0,0,0,0,0,-7.5141,-7.5153,-7.5243,-7.5241,-7.5239,-7.5286,-7.5292,-7.538,-7.5262,-7.5252,-7.5251,-7.5245,-7.5311,-7.5318,-7.534,-7.5463,-7.5466,-7.535,-7.5354,-7.5357,-7.5359,0,0,0,0,0,0,0,-7.5136,-7.515,-7.5296,-7.5244,-7.5242,-7.5221,-7.5228,-7.5308,-7.5305,-7.5252,-7.5247,-7.5256,-7.5309,-7.5334,-7.5341,-7.5467,-7.535,-7.5356,-7.536,-7.5363,-7.5702,-7.5706,0,0,0,0,0,0,-7.5134,-7.5146,-7.5294,-7.5298,-7.5178,-7.5229,-7.5236,-7.5275,-7.5304,-7.5304,-7.526,-7.5252,-7.5324,-7.5333,-7.5343,-7.5498,-7.5357,-7.5363,-7.5367,-7.5697,-7.5703,-7.5708,0,0,0,0,0,0,-7.513,-7.5148,-7.5291,-7.5221,-7.5237,-7.5237,-7.5282,-7.5279,-7.5304,-7.531,-7.5309,-7.5286,-7.5321,-7.5334,-7.5432,-7.5499,-7.5366,-7.5373,-7.5691,-7.5699,-7.5705,-7.581,0,0,0,0,0,0,-7.5124,-7.5147,-7.5198,-7.5222,-7.5241,-7.5379,-7.5286,-7.5284,-7.5316,-7.5307,-7.5334,-7.5334,-7.5319,-7.5422,-7.5439,-7.5507,-7.5378,-7.5685,-7.5694,-7.5703,-7.5801,-7.582,-7.5837,0,0,0,0,0,-7.5117,-7.5224,-7.5201,-7.5219,-7.5305,-7.5384,-7.5394,-7.5375,-7.5322,-7.5372,-7.5377,-7.5334,-7.5491,-7.5433,-7.5451,-7.5522,-7.568,-7.5692,-7.5702,-7.5793,-7.5817,-7.5837,0,0,0,0,0,0,-7.5205,-7.5226,-7.5201,-7.5319,-7.535,-7.537,-7.5432,-7.5401,-7.5447,-7.5436,-7.5409,-7.5416,-7.552,-7.5531,-7.5467,-7.5651,-7.5577,-7.5592,-7.5639,-7.5662,-7.568,-7.5673,-7.5384,0,0,0,0,0,-7.5239,-7.5302,-7.5317,-7.542,-7.5437,-7.5433,-7.5466,-7.5449,-7.548,-7.5492,-7.5503,-7.5534,-7.559,-7.5627,-7.5679,-7.5804,-7.5807,-7.5862,-7.588,-7.5895,-7.5907,-7.5972,-7.5995,-7.5744,-7.5744,-7.5744,0,0,-7.5308,-7.5327,-7.5369,-7.5438,-7.546,-7.5525,-7.5444,-7.5516,-7.5563,-7.5502,-7.5595,-7.5606,-7.5638,-7.575,-7.5799,-7.5762,-7.5978,-7.5909,-7.5921,-7.5924,-7.5986,-7.6009,-7.6031,-7.5752,-7.575,-7.5749,0,0,-7.5466,-7.5489,-7.5575,-7.56,-7.5636,-7.5632,-7.5654,-7.5679,-7.5683,-7.5777,-7.5732,-7.5789,-7.5886,-7.5911,-7.5936,-7.6106,-7.6068,-7.6124,-7.6218,-7.6282,-7.6301,-7.6319,-7.6377,-7.6398,-7.6137,-7.6138,-7.6138,0,-7.5546,-7.5643,-7.5624,-7.57,-7.573,-7.5681,-7.5768,-7.5793,-7.5843,-7.5865,-7.5824,-7.5945,-7.5964,-7.608,-7.6121,-7.6145,-7.6166,-7.6119,-7.6301,-7.6318,-7.6333,-7.6389,-7.6411,-7.6144,-7.6143,-7.6143,-7.6142,0,-7.574,-7.5808,-7.5874,-7.5925,-7.5964,-7.6045,-7.6037,-7.6079,-7.6059,-7.606,-7.6156,-7.6177,-7.6232,-7.6259,-7.624,-7.6373,-7.6348,-7.6305,-7.6228,-7.6364,-7.6415,-7.6437,-7.6153,-7.6151,-7.6149,-7.6147,0,0,-7.5951,-7.5992,-7.6017,-7.6039,-7.6076,-7.6127,-7.6207,-7.6262,-7.6297,-7.6335,-7.6398,-7.6484,-7.6443,-7.6472,-7.6456,-7.6513,-7.6644,-7.6462,-7.6462,-7.6492,-7.6789,-7.6819,-7.6844,-7.662,-7.6624,-7.6628,-7.6785,0,-7.6108,-7.6245,-7.6231,-7.6361,-7.6423,-7.6378,-7.6447,-7.6476,-7.648,-7.6532,-7.6536,-7.6596,-7.654,-7.6557,-7.6611,-7.6616,-7.6702,-7.6605,-7.6677,-7.668,-7.6667,-7.6871,-7.6903,-7.705,-7.6805,-7.6809,-7.6811,0,-7.6307,-7.6353,-7.649,-7.6517,-7.6542,-7.6604,-7.6654,-7.6705,-7.6738,-7.6737,-7.6771,-7.6745,-7.6823,-7.6749,-7.6856,-7.679,-7.6819,-7.6827,-7.6832,-7.6835,-7.6751,-7.6876,-7.7097,-7.7118,-7.6843,-7.684,-7.6838,0,-7.6444,-7.654,-7.6634,-7.6655,-7.669,-7.6734,-7.6751,-7.6779,-7.6814,-7.6857,-7.6879,-7.6931,-7.6959,-7.6999,-7.6988,-7.6936,-7.7097,-7.7022,-7.7096,-7.7096,-7.7128,-7.7125,-7.7353,-7.7154,-7.7153,-7.7153,-7.7152,0,-7.6618,-7.6703,-7.6696,-7.6753,-7.6847,-7.683,-7.6923,-7.6934,-7.696,-7.7018,-7.6983,-7.7038,-7.7022,-7.7076,-7.7068,-7.7156,-7.717,-7.717,-7.7166,-7.7171,-7.717,-7.7186,-7.7174,-7.7159,-7.7157,-7.7156,-7.7155,0,-7.6785,-7.6785,-7.6883,-7.6909,-7.6918,-7.6985,-7.7007,-7.706,-7.7063,-7.7137,-7.7153,-7.7156,-7.7218,-7.7213,-7.7282,-7.7277,-7.7385,-7.7371,-7.7374,-7.737,-7.7443,-7.7435,-7.7686,-7.7717,-7.75,-7.7502,-7.7504,0,-7.6894,-7.6958,-7.6992,-7.7029,-7.7049,-7.7109,-7.7144,-7.7131,-7.7169,-7.7212,-7.726,-7.7319,-7.7365,-7.7466,-7.7474,-7.7527,-7.7511,-7.7596,-7.7519,-7.7521,-7.7509,-7.7504,-7.7509,-7.761,-7.7612,-7.7614,-7.7616,0,-7.7087,-7.7084,-7.7136,-7.719,-7.7233,-7.7274,-7.7311,-7.7343,-7.7333,-7.7378,-7.7441,-7.7477,-7.7549,-7.7607,-7.7658,-7.7674,-7.7643,-7.7641,-7.766,-7.7664,-7.7661,-7.7661,-7.7412,-7.7634,-7.7632,-7.7631,-7.763,-7.7629,-7.7226,-7.7281,-7.7313,-7.7373,-7.74,-7.7436,-7.7487,-7.7497,-7.755,-7.7607,-7.7597,-7.7668,-7.7699,-7.7764,-7.7786,-7.784,-7.7809,-7.7838,-7.7844,-7.7851,-7.7858,-7.7657,-7.785,-7.7849,-7.7849,-7.7848,-7.7848,0,-7.7415,-7.7434,-7.7489,-7.7543,-7.759,-7.756,-7.7599,-7.764,-7.7703,-7.7736,-7.7783,-7.7855,-7.7912,-7.7926,-7.7981,-7.8022,-7.8009,-7.8036,-7.8031,-7.8035,-7.7884,-7.786,-7.8045,-7.8045,-7.8045,-7.8045,-7.8045,-7.8045,-7.7518,-7.7608,-7.7609,-7.7712,-7.7731,-7.7801,-7.7826,-7.7858,-7.7884,-7.7967,-7.8015,-7.8024,-7.8049,-7.8105,-7.8156,-7.8158,-7.8178,-7.8211,-7.8207,-7.8065,-7.8045,-7.8026,-7.8004,-7.8216,-7.8216,-7.8353,-7.8354,-7.8355]},{"header":{"parameterUnit":"m.s-1","parameterCategory":1,"la1":30.2991,"la2":30.254,"lo1":-89.0895,"lo2":-89.0444,"dy":0.0017,"dx":0.0017,"nx":28,"ny":28,"refTime":"2024-04-28T03:00:00:Z","depth":0,"parameterNumber":3,"parameterNumberName":"V-component_of_WINDS"},"data":[0,0,0,0,0,0,0,0,0,0,0,0,0,0,0,0,0,0,0,0,0,0,0,0,0,0,0,0,0,0,0,0,0,0,0,0,0,0,0,0,0,0,0,0,0,0,0,0,0,0,0,0,0,0,0,0,0,0,3.7239,3.724,0,3.7286,3.7287,3.7287,3.7312,3.7312,3.7312,3.7312,3.7356,3.7357,3.7358,0,0,0,0,0,0,0,0,0,0,0,0,0,3.7168,3.7169,3.7239,3.724,3.724,3.7286,3.7287,3.7287,3.7312,3.7312,3.7312,3.7312,3.7355,3.7357,3.7358,0,0,0,0,0,0,0,0,0,0,0,0,0,3.7205,3.717,3.7239,3.7258,3.726,3.7286,3.7287,3.7287,3.7312,3.7312,3.7312,3.7312,3.7355,3.7357,3.7358,3.7367,0,0,3.7363,3.7364,0,0,0,0,0,0,0,0,3.7203,3.7208,3.7255,3.7257,3.7259,3.7293,3.7278,3.7314,3.7312,3.7292,3.7312,3.7312,3.7335,3.7338,3.7346,3.7369,3.7371,3.7364,3.7365,3.7365,3.7366,0,0,0,0,0,0,0,3.7201,3.7206,3.7257,3.7255,3.7258,3.7263,3.7269,3.7285,3.7312,3.7294,3.7296,3.7301,3.7336,3.7345,3.7348,3.7372,3.7363,3.7365,3.7366,3.7367,3.7406,3.7406,0,0,0,0,0,0,3.7195,3.7204,3.7256,3.7259,3.7231,3.7265,3.7271,3.7282,3.7312,3.7317,3.7301,3.7302,3.7342,3.7346,3.7349,3.7363,3.7365,3.7367,3.7368,3.7406,3.7406,3.7406,0,0,0,0,0,0,3.7194,3.72,3.7254,3.7232,3.7239,3.7266,3.7278,3.7283,3.7292,3.7318,3.7322,3.7305,3.7342,3.7347,3.7363,3.7365,3.7368,3.7369,3.7406,3.7406,3.7406,3.7389,0,0,0,0,0,0,3.7192,3.7199,3.7203,3.7232,3.724,3.7268,3.7279,3.7284,3.7295,3.7297,3.7323,3.7327,3.7342,3.7361,3.7365,3.7367,3.737,3.7406,3.7406,3.7406,3.739,3.7389,3.7388,0,0,0,0,0,3.7189,3.7195,3.7203,3.7209,3.7246,3.7268,3.7273,3.7291,3.7295,3.7299,3.7316,3.7326,3.7364,3.7362,3.7367,3.737,3.7406,3.7406,3.7406,3.739,3.7389,3.7388,0,0,0,0,0,0,3.7163,3.7199,3.7208,3.7224,3.7243,3.7272,3.7277,3.7289,3.7306,3.7307,3.7328,3.7334,3.7349,3.7361,3.7358,3.7381,3.7386,3.7387,3.7372,3.7371,3.737,3.7367,3.7372,0,0,0,0,0,3.716,3.7176,3.7206,3.7217,3.7226,3.725,3.726,3.7274,3.7293,3.7301,3.7319,3.7337,3.7353,3.7363,3.7379,3.7392,3.7398,3.7397,3.7396,3.7395,3.7395,3.7404,3.7404,3.7407,3.7407,3.7407,0,0,3.7152,3.7174,3.7182,3.7212,3.7228,3.7244,3.7257,3.7272,3.7283,3.7303,3.732,3.7334,3.7355,3.7371,3.7378,3.7381,3.7396,3.7395,3.7394,3.7395,3.7405,3.7404,3.7404,3.7407,3.7407,3.7407,0,0,3.7146,3.7164,3.7176,3.7193,3.7218,3.7235,3.7238,3.7266,3.7276,3.7295,3.731,3.7324,3.7351,3.7366,3.7377,3.738,3.739,3.7385,3.7379,3.7388,3.7388,3.7388,3.7389,3.7389,3.7385,3.7385,3.7385,0,3.7133,3.7158,3.718,3.7196,3.7209,3.723,3.7242,3.7257,3.7285,3.7293,3.7297,3.7333,3.7349,3.7369,3.737,3.7378,3.7382,3.7381,3.7386,3.7386,3.7387,3.7388,3.7389,3.7384,3.7384,3.7384,3.7385,0,3.7141,3.7158,3.7165,3.7194,3.7208,3.7222,3.7246,3.7257,3.727,3.7286,3.7305,3.7325,3.7346,3.7352,3.7363,3.7374,3.7375,3.7382,3.7388,3.7385,3.7387,3.7388,3.7383,3.7383,3.7384,3.7384,0,0,3.7118,3.7162,3.7164,3.7179,3.721,3.7223,3.7238,3.7261,3.727,3.729,3.7303,3.7327,3.7334,3.7347,3.736,3.7368,3.737,3.7374,3.7375,3.7373,3.7384,3.7378,3.7379,3.7378,3.7378,3.7378,3.7382,0,3.7117,3.7146,3.7168,3.7188,3.7205,3.7226,3.7239,3.7259,3.7275,3.7291,3.7308,3.7325,3.7334,3.7342,3.735,3.7368,3.7373,3.7368,3.7389,3.739,3.7383,3.738,3.7374,3.7377,3.7383,3.7383,3.7383,0,3.7118,3.714,3.7163,3.7194,3.7202,3.7213,3.7237,3.7252,3.7275,3.7287,3.7302,3.7317,3.7334,3.7339,3.7362,3.7358,3.7368,3.7379,3.7379,3.7381,3.7386,3.7382,3.7378,3.7378,3.7385,3.7385,3.7385,0,3.71,3.7134,3.7153,3.7165,3.7201,3.7209,3.7225,3.7249,3.7262,3.7282,3.7291,3.7312,3.7324,3.734,3.736,3.7361,3.7381,3.7387,3.7391,3.739,3.7393,3.7392,3.739,3.74,3.74,3.74,3.74,0,3.7096,3.7109,3.7146,3.7157,3.7173,3.7198,3.7213,3.723,3.7251,3.7266,3.7285,3.7298,3.7325,3.7341,3.7357,3.7374,3.7379,3.7388,3.7392,3.7386,3.7385,3.7393,3.7393,3.74,3.74,3.74,3.74,0,3.7077,3.7102,3.7124,3.7159,3.7168,3.7178,3.7207,3.7218,3.7237,3.7255,3.7261,3.7289,3.7309,3.7332,3.7358,3.7369,3.7386,3.7391,3.7378,3.7381,3.7383,3.7382,3.7385,3.7387,3.7395,3.7395,3.7395,0,3.7073,3.7084,3.712,3.7133,3.7148,3.7167,3.7182,3.7207,3.7221,3.7251,3.7259,3.7281,3.7301,3.7332,3.7354,3.7375,3.7382,3.7382,3.7385,3.7379,3.7382,3.7381,3.7383,3.738,3.738,3.738,3.7379,0,3.7062,3.7075,3.7096,3.7122,3.7139,3.716,3.7181,3.719,3.722,3.7234,3.7257,3.7272,3.7302,3.7323,3.7348,3.7363,3.7376,3.7379,3.7381,3.7374,3.7367,3.7371,3.7375,3.7378,3.7378,3.7378,3.7378,3.7378,3.7051,3.7063,3.7091,3.7114,3.7133,3.7154,3.7167,3.7188,3.7208,3.7235,3.7249,3.7272,3.7296,3.7331,3.7346,3.7363,3.7367,3.737,3.737,3.7371,3.737,3.7365,3.7368,3.7368,3.7368,3.7368,3.7368,0,3.7042,3.7062,3.7083,3.7114,3.7132,3.7146,3.7171,3.7185,3.7205,3.7228,3.7247,3.7274,3.7296,3.7321,3.7344,3.7354,3.736,3.7359,3.7358,3.7362,3.7364,3.7361,3.7353,3.7353,3.7353,3.7353,3.7353,3.7353,3.7039,3.706,3.7077,3.7108,3.7127,3.7151,3.7165,3.7184,3.7202,3.7232,3.7251,3.7268,3.7292,3.7318,3.7339,3.7345,3.7353,3.735,3.7358,3.736,3.7361,3.7362,3.7359,3.7351,3.7351,3.7354,3.7354,3.7354]}]]